Home   Weather   Unst   Past weeks
Flag for United Kingdom

Past Weather in Unst, Scotland, United Kingdom — Yesterday and Last 2 Weeks

Now
41 °F

Passing clouds.


Feels Like: 37 °F
Forecast: 48 / 40 °F
Wind: 7 mph from North

Location: Lerwick

Current Time: Oct 20, 2019 at 11:18:54 pm

Latest Report: Oct 20, 2019 at 10:00 pm


Visibility: 41 mi

Pressure: 30.16 "Hg

Humidity: 88%

Dew Point: 38 °F

Location of UnstLocation

Past Weather in Unst — Graph

°F

Unst Temperature Yesterday

Maximum temperature yesterday: 50 °F (at 12:00 pm)
Minimum temperature yesterday: 44 °F (at 4:00 am)
Average temperature yesterday: 47 °F

High & Low Weather Summary for the Past Weeks

 TemperatureHumidityPressure
High53 °F (Oct 18, 1:00 pm)100% (Oct 16, 4:00 am)30.16 "Hg (Oct 16, 4:00 am)
Low41 °F (Oct 13, 4:00 am)63% (Oct 10, 5:00 pm)29.00 "Hg (Oct 10, 12:00 am)
Average48 °F88%29.53 "Hg
* Reported Oct 5 9:00 pm — Oct 20 9:00 pm, Unst. Weather by CustomWeather, © 2019

Note: Actual official high and low records may vary slightly from our data, if they occured in-between our weather recording intervals... More about our weather records

Advertising

Unst Weather History for the Previous 24 Hours

Scroll right to see more
 ConditionsComfort  
Time TempWeatherWind HumidityBarometerVisibility
9:00 pm
Sun, Oct 20
42 °FPassing clouds.9 mph82%30.16 "Hg47 mi
8:00 pm42 °FSprinkles. Overcast.13 mph87%30.15 "Hg31 mi
7:00 pm43 °FOvercast.9 mph86%30.14 "Hg31 mi
6:00 pm43 °FPassing clouds.14 mph84%30.11 "Hg34 mi
5:00 pm44 °FSprinkles. Partly sunny.14 mph81%30.09 "Hg31 mi
4:00 pm46 °FPartly sunny.15 mph75%30.08 "Hg31 mi
3:00 pm46 °FOvercast.14 mph68%30.06 "Hg31 mi
2:00 pm47 °FOvercast.17 mph64%30.04 "Hg31 mi
1:00 pm47 °FOvercast.17 mph67%30.02 "Hg25 mi
12:00 pm47 °FOvercast.21 mph67%30.00 "Hg25 mi
11:00 am46 °FOvercast.21 mph69%29.98 "Hg25 mi
10:00 am46 °FOvercast.21 mph68%29.95 "Hg22 mi
9:00 am45 °FOvercast.22 mph68%29.94 "Hg25 mi
8:00 am44 °FPartly sunny.18 mph71%29.91 "Hg22 mi
7:00 am43 °FOvercast.20 mph76%29.90 "Hg19 mi
6:00 am45 °FOvercast.22 mph69%29.87 "Hg19 mi
5:00 am45 °FQuite cool.24 mph68%29.85 "Hg18 mi
4:00 am45 °FOvercast.24 mph68%29.83 "Hg19 mi
3:00 am46 °FOvercast.28 mph70%29.82 "Hg14 mi
2:00 am45 °FOvercast.24 mph75%29.81 "Hg14 mi
1:00 am46 °FOvercast.30 mph65%29.79 "Hg19 mi
12:00 am46 °FOvercast.28 mph68%29.78 "Hg16 mi
11:00 pm
Sat, Oct 19
46 °FOvercast.31 mph71%29.77 "Hg14 mi
Weather by CustomWeather, © 2019

See weather overview